Location: L�gaud
(45.7115°N, 1.7775°E)
Time: 14:29:19
(UTC+00:00)

SL-08 RB Rocket - Pass Details

Date: 03 March 2021
Orbit: 647 x 683 km, 97.8° (Epoch: 11 April)

Event Time Altitude Azimuth Distance (km) Brightness Sun altitude
Rises 18:50:02 0° 159° (SSE) 2,963 6.8 -12.6°
Reaches altitude 10° 18:52:14 10° 157° (SSE) 2,061 6.0 -12.9°
Maximum altitude 18:56:42 71° 75° (ENE) 702 3.6 -13.7°
Drops below altitude 10° 19:01:16 10° 351° (N) 2,099 6.5 -14.5°
Sets 19:03:31 0° 350° (N) 3,023 7.3 -14.9°
